Theta_e
350 350 349 349 349 349 349 348 347 348 349 351 351 352 353 355 357 357 357 358 358 359 359 359 361 361 361 361 360 359 359 358 358 357 356 354 353 351 349 345 343 342
350 350 351 350 349 350 350 349 348 348 348 350 352 353 354 355 356 357 356 357 358 358 359 359 360 361 361 361 360 359 358 358 357 358 356 354 354 352 350 349 346 345
350 350 350 349 348 349 349 349 350 349 348 349 351 353 353 355 355 356 357 357 356 358 359 360 360 360 361 361 360 359 358 358 357 357 357 356 355 353 353 350 348 346
350 350 350 349 349 349 350 349 349 349 349 348 349 352 353 355 355 355 356 358 356 357 358 359 360 360 360 360 360 359 359 359 359 358 357 357 356 355 354 352 350 348
350 350 350 350 350 350 350 349 348 348 348 348 348 351 353 354 354 354 355 356 356 356 357 358 359 360 361 360 359 358 358 358 359 358 356 356 357 355 354 353 351 349
350 351 351 350 350 350 349 349 349 348 349 348 348 350 351 353 354 354 354 354 355 356 356 357 358 359 360 360 359 358 358 358 358 357 356 355 356 356 355 354 352 350
349 350 350 350 350 350 349 349 350 350 349 350 350 349 350 351 353 353 354 354 354 355 355 356 357 357 359 360 359 358 358 358 358 357 356 356 356 355 355 355 353 352
350 350 350 350 349 349 349 349 349 350 350 350 349 349 350 351 352 353 354 354 354 354 355 356 356 357 358 358 358 357 357 358 357 356 356 356 356 355 355 355 354 353
350 349 350 349 349 349 348 349 349 350 351 349 349 350 351 351 351 352 353 354 353 354 354 355 355 356 357 358 358 358 357 357 358 357 356 355 355 355 355 355 354 353
349 349 349 349 348 349 348 349 349 349 351 350 350 350 350 352 352 352 353 353 353 353 353 354 354 355 356 357 357 357 357 357 358 358 357 357 356 356 356 355 354 354
348 349 348 348 348 348 348 349 349 349 350 350 350 350 350 351 352 353 353 353 352 352 353 353 354 354 355 356 357 358 358 357 357 357 357 357 357 357 357 356 355 354
348 348 348 348 348 348 349 349 349 349 349 351 351 351 351 351 352 353 353 352 353 353 353 353 354 354 354 355 355 356 357 357 358 357 357 357 357 357 357 357 356 355
348 348 348 348 349 349 349 349 349 350 350 349 351 351 351 351 351 352 354 353 353 354 353 353 353 354 354 355 355 356 356 356 356 357 357 357 357 357 357 357 357 356
348 348 349 349 349 350 350 349 350 350 350 351 351 350 351 351 351 351 352 354 354 354 354 355 354 354 354 354 355 355 355 355 356 356 356 356 357 357 357 357 357 357
349 349 349 349 350 349 349 349 350 350 351 351 351 351 351 351 352 352 352 352 353 354 354 355 354 353 354 354 354 355 355 355 355 355 355 355 356 356 357 357 358 358
349 349 349 349 349 349 349 349 349 350 350 350 350 351 351 351 352 353 352 352 352 353 353 354 354 354 346 335 339 353 355 355 355 355 355 355 355 355 356 356 357 357
349 349 349 348 349 349 349 350 350 350 350 350 350 350 350 351 351 350 351 352 352 352 352 353 353 352 336 330 331 334 350 354 354 354 355 355 355 354 354 355 356 357
349 349 349 349 349 349 350 350 350 350 350 350 350 350 350 351 350 349 350 351 352 353 352 353 354 339 332 329 329 328 334 353 355 354 354 354 354 354 354 355 355 356
349 349 349 349 349 350 350 350 350 350 350 350 349 351 351 350 350 349 349 349 349 350 350 352 353 337 331 328 328 327 327 337 354 354 354 354 354 354 355 355 355 355
349 349 349 349 350 350 350 350 350 349 350 351 351 351 350 350 350 350 350 349 349 348 349 350 351 337 329 326 326 325 326 330 350 353 354 354 354 355 355 355 355 355
350 350 349 350 350 350 350 350 350 350 350 350 351 350 350 350 350 349 349 350 349 349 349 348 349 333 327 324 323 322 324 327 347 352 353 354 355 355 356 355 356 356
350 350 350 350 350 350 350 350 350 350 350 351 351 351 351 351 351 351 350 350 350 350 349 348 349 330 325 323 321 321 323 336 345 349 351 353 354 355 355 356 357 357
352 351 351 351 351 350 350 350 350 350 351 352 351 350 350 350 350 350 351 350 350 350 349 348 349 336 324 321 320 319 322 340 344 347 349 350 352 353 355 355 356 357
353 352 352 352 352 351 351 351 352 352 352 353 351 350 350 350 351 351 351 351 350 349 349 349 349 340 323 319 318 318 325 342 345 346 347 349 350 352 354 355 355 347
354 354 353 352 352 352 352 352 352 352 353 353 352 352 352 352 352 351 351 351 350 350 343 347 349 342 323 319 317 316 325 343 345 346 346 347 349 350 352 353 354 350
355 355 354 354 353 353 354 354 354 354 354 353 353 353 353 353 352 352 351 351 351 351 350 349 349 350 343 319 316 314 317 342 347 346 345 347 348 349 350 351 353 354
Wind_Speed
12 11 11 10 10 10 9 9 8 8 8 7 8 8 8 7 7 8 7 6 7 6 6 6 6 6 5 5 5 5 5 5 5 4 5 5 5 5 6 6 5 6
13 12 11 10 8 8 8 9 9 9 8 8 7 7 6 6 7 8 8 7 6 7 6 6 6 6 6 6 6 6 5 5 6 4 5 6 5 5 6 6 6 5
13 12 12 12 12 12 12 9 9 8 8 8 7 7 7 6 7 7 8 8 7 7 7 6 6 6 6 6 6 6 6 6 6 5 5 6 5 6 5 5 5 6
14 14 13 13 12 12 10 8 7 7 7 7 9 8 7 6 7 7 8 9 8 8 7 6 7 6 7 6 7 8 7 7 5 5 5 4 5 5 5 4 5 5
14 13 12 12 11 10 9 9 10 9 9 10 8 7 8 8 8 7 8 8 9 8 7 7 7 7 6 8 8 8 8 7 7 7 6 5 5 5 5 5 6 7
12 12 12 12 11 11 10 11 11 10 10 9 10 8 9 9 9 9 9 9 7 7 7 7 7 6 6 7 8 8 7 8 7 7 8 8 5 5 4 5 6 7
14 13 13 12 12 12 12 11 10 10 10 10 7 8 8 9 10 10 10 10 9 9 8 9 8 7 6 6 8 8 8 8 7 8 9 7 5 6 6 6 6 7
14 13 13 11 12 12 12 11 10 10 10 8 9 9 9 10 11 9 9 10 9 9 9 9 9 9 7 6 7 9 8 6 7 9 9 7 6 7 7 5 6 7
13 13 12 13 14 12 11 11 10 10 9 10 10 8 9 10 10 10 10 10 9 9 9 9 9 8 7 7 7 8 8 8 8 8 7 7 8 8 7 6 7 7
13 13 13 13 13 12 13 12 10 9 9 10 10 8 8 9 10 10 9 9 10 10 10 10 9 8 7 8 8 8 8 8 7 7 7 8 8 8 7 7 8 7
14 13 14 15 14 11 13 12 11 9 9 10 9 9 10 9 9 9 9 9 10 11 11 10 10 10 9 8 8 8 8 8 8 7 8 8 8 8 8 8 8 9
15 14 15 15 14 13 13 12 11 11 10 9 10 11 11 10 10 9 9 11 11 11 11 11 10 10 10 10 9 8 8 8 8 7 8 8 8 8 8 8 8 8
15 16 14 14 15 14 13 12 12 11 10 11 10 11 11 10 10 10 10 11 11 11 11 11 10 10 10 10 9 9 9 9 8 8 8 7 8 8 9 9 9 8
15 15 14 14 13 13 13 13 12 12 12 11 10 12 11 12 11 12 11 10 11 11 11 10 10 9 10 10 10 10 9 9 9 8 8 8 8 8 9 9 9 9
14 13 12 13 13 13 13 13 13 12 12 11 11 11 11 11 11 11 11 11 11 11 11 10 10 10 9 9 10 10 10 9 9 8 9 8 9 9 9 9 9 9
13 12 12 12 12 13 13 12 12 12 12 12 12 12 11 11 10 11 10 11 12 12 11 10 10 9 11 16 14 11 10 9 9 10 10 10 10 9 9 9 9 9
12 12 12 13 13 12 11 12 12 11 11 12 12 12 12 11 11 11 11 11 12 11 11 10 10 10 15 15 17 17 12 10 10 10 9 9 9 10 11 9 8 8
12 12 12 13 12 13 13 12 11 12 12 12 12 13 12 11 12 13 13 12 11 11 11 10 11 13 15 15 17 17 15 12 9 8 8 9 9 9 10 8 8 8
12 13 13 13 13 13 12 11 12 12 13 13 13 13 12 12 13 13 13 12 12 13 12 12 11 13 16 17 17 17 18 15 10 10 9 9 10 10 10 11 10 9
14 14 14 14 13 13 13 13 13 14 14 13 12 11 12 12 13 14 13 13 13 13 13 11 12 14 17 17 17 18 18 15 10 12 11 11 12 11 10 11 11 10
14 14 14 14 14 14 13 14 14 13 14 13 11 12 13 14 14 14 14 13 13 13 12 12 11 16 16 17 18 18 18 14 9 9 10 12 12 12 13 12 12 11
15 14 14 14 14 14 14 14 14 14 14 13 12 12 12 11 11 12 13 13 13 13 12 14 12 16 17 17 18 17 17 10 8 9 10 12 13 13 13 12 11 11
15 15 15 15 14 14 15 14 14 14 13 11 12 12 11 11 12 10 11 11 13 13 14 14 13 15 17 18 17 17 12 8 8 8 9 11 13 13 12 12 12 12
15 15 15 15 14 15 15 14 14 13 13 12 13 13 12 12 10 11 11 11 13 13 13 12 11 13 15 16 17 17 15 9 8 8 10 11 12 12 11 11 13 16
14 15 15 15 14 15 15 15 15 14 14 12 11 11 11 11 11 10 11 11 11 12 14 15 11 12 15 17 18 18 15 10 10 9 10 11 10 11 11 11 11 12
13 14 14 14 15 15 14 14 13 12 11 10 10 10 10 10 10 10 11 10 10 11 10 11 12 12 13 17 18 18 19 12 9 10 11 12 10 10 10 11 10 10
Wind_Direction
191 190 193 193 196 194 189 189 191 191 194 188 194 197 199 196 184 193 198 198 203 205 200 194 193 195 194 189 189 192 197 204 211 199 202 196 208 200 207 214 212 212
192 191 192 193 193 193 195 192 188 190 191 192 197 189 194 185 194 190 192 197 198 207 202 198 197 197 197 195 190 193 202 203 213 193 200 202 209 201 215 208 214 216
192 192 192 192 194 195 195 192 188 188 189 194 186 187 189 188 188 193 195 192 198 200 200 201 199 201 198 200 193 199 206 203 212 200 204 210 205 204 216 211 211 202
194 194 194 197 196 195 191 186 189 187 182 181 196 193 189 187 190 192 196 198 200 202 200 197 204 200 199 199 198 213 212 213 207 187 206 216 214 213 219 206 219 216
193 194 197 197 196 191 185 191 193 191 193 200 192 188 189 188 189 192 195 201 203 203 199 202 203 204 198 205 204 213 216 220 214 206 205 212 213 209 220 205 215 224
194 195 196 196 193 188 191 196 197 194 198 192 197 191 196 191 194 196 197 199 200 203 202 201 202 206 199 203 207 214 213 218 214 210 218 221 211 208 216 211 219 224
193 193 197 196 194 193 196 198 197 197 197 201 184 196 189 195 200 202 201 203 203 204 205 206 208 208 204 201 211 215 217 217 215 212 220 224 207 215 214 216 219 228
193 194 194 193 195 195 200 199 198 198 198 188 193 198 190 197 203 204 204 205 203 207 208 208 209 211 202 193 209 216 217 212 214 214 218 215 207 221 214 215 216 227
191 193 191 193 195 197 200 198 198 198 191 193 199 195 195 200 203 204 203 203 206 208 209 211 209 207 201 200 207 210 211 213 213 206 206 209 212 221 218 209 218 223
191 192 191 193 195 198 199 200 195 195 189 197 198 195 196 205 205 204 203 202 206 210 210 213 210 207 201 202 207 207 212 213 207 210 213 214 218 221 217 211 220 227
192 190 193 196 199 198 200 196 194 190 189 195 192 199 204 202 206 203 204 204 208 211 212 212 213 207 204 203 207 209 212 212 212 213 215 218 219 223 222 220 223 227
192 193 195 197 198 200 201 199 196 195 192 192 193 200 202 202 204 203 205 210 213 214 214 216 213 209 208 208 206 206 211 215 218 217 219 221 223 225 224 222 227 229
193 196 196 196 198 201 200 199 200 196 194 196 195 200 200 201 202 204 208 211 216 216 218 217 215 212 211 210 209 208 211 214 218 219 222 222 226 226 227 227 229 230
196 195 195 196 197 198 199 199 199 199 201 200 196 202 204 206 203 205 210 212 217 218 221 218 216 215 214 212 210 210 210 215 216 217 220 224 227 228 228 231 229 229
194 194 195 196 196 197 199 199 199 199 199 200 200 204 207 208 209 208 210 214 219 220 222 218 218 218 215 211 211 212 213 214 214 216 219 224 229 230 231 231 231 231
192 192 193 193 196 199 200 199 199 199 199 201 203 205 205 206 208 211 212 215 219 220 222 220 221 222 216 208 207 212 212 214 217 220 222 227 232 237 236 232 231 231
189 193 191 194 198 199 198 199 200 199 201 203 205 205 205 205 205 210 214 216 218 219 219 220 222 225 217 204 209 210 209 214 216 220 219 225 228 234 241 238 235 231
190 189 192 196 195 199 199 199 198 199 203 205 205 206 207 204 208 211 214 217 220 220 222 221 224 224 217 210 209 210 209 215 216 218 219 222 227 230 238 239 239 236
186 189 193 195 197 199 198 196 199 202 205 206 207 208 206 207 211 211 214 215 218 221 224 224 227 219 215 213 211 208 210 213 225 223 222 226 227 230 235 239 240 241
187 189 194 198 197 197 197 198 200 204 206 206 208 207 209 212 212 214 215 214 216 219 224 226 226 223 211 211 211 209 208 206 224 226 228 232 232 232 232 234 235 237
189 191 196 197 197 197 198 201 202 205 206 206 205 206 208 211 212 214 217 216 217 218 221 224 224 221 213 210 211 209 207 201 218 224 231 234 235 235 235 235 234 233
188 193 197 198 198 198 200 203 203 205 206 206 208 212 213 215 218 218 219 219 219 219 222 229 227 215 212 212 209 208 199 197 208 219 226 233 237 237 237 236 234 232
191 193 197 199 197 198 201 203 204 206 209 205 209 211 210 211 217 213 218 220 220 219 222 229 232 218 210 211 209 200 188 198 202 214 224 230 237 237 239 238 235 232
192 194 197 199 197 200 202 204 206 207 209 204 206 208 211 212 211 217 219 219 220 220 219 225 232 223 209 212 209 196 191 190 199 207 223 229 237 239 239 241 239 233
193 195 198 197 198 202 202 204 205 206 207 203 205 209 214 213 214 217 220 221 218 221 219 221 229 228 210 210 207 199 193 206 203 211 224 230 232 241 239 241 244 238
193 196 198 197 200 204 204 207 206 207 205 199 205 207 213 212 213 214 219 221 218 219 218 215 222 229 217 207 205 200 194 199 207 213 225 229 229 233 244 241 240 243